TimeEDT,TemperatureF,Dew PointF,Humidity,Sea Level PressureIn,VisibilityMPH,Wind Direction,Wind SpeedMPH,Gust SpeedMPH,PrecipitationIn,Events,Conditions,WindDirDegrees,DateUTC
12:15 AM,58.5,50.9,76,29.89,10.0,South,8.1,-,N/A,,Clear,170,2013-10-01 04:15:00
12:34 AM,57.9,50.9,77,29.89,10.0,SSE,4.6,-,N/A,,Clear,160,2013-10-01 04:34:00
12:55 AM,58.3,50.9,76,29.90,10.0,South,4.6,-,N/A,,Clear,190,2013-10-01 04:55:00
1:14 AM,58.5,50.9,76,29.90,10.0,South,5.8,-,N/A,,Clear,180,2013-10-01 05:14:00
1:35 AM,58.6,50.9,75,29.90,10.0,South,8.1,-,N/A,,Clear,180,2013-10-01 05:35:00
1:54 AM,59.0,50.5,73,29.90,10.0,South,8.1,-,N/A,,Clear,180,2013-10-01 05:54:00
2:14 AM,58.1,50.4,75,29.90,10.0,South,6.9,-,N/A,,Clear,170,2013-10-01 06:14:00
2:35 AM,56.5,50.4,80,29.90,10.0,SSE,6.9,-,N/A,,Clear,160,2013-10-01 06:35:00
2:54 AM,55.4,50.2,83,29.90,10.0,SSE,6.9,-,N/A,,Clear,160,2013-10-01 06:54:00
3:14 AM,55.6,50.0,81,29.89,10.0,SSE,6.9,-,N/A,,Clear,150,2013-10-01 07:14:00
3:35 AM,56.1,50.0,80,29.89,10.0,SSE,5.8,-,N/A,,Clear,160,2013-10-01 07:35:00
3:54 AM,56.1,50.0,80,29.89,10.0,SSE,4.6,-,N/A,,Clear,160,2013-10-01 07:54:00
4:14 AM,55.2,50.0,83,29.88,10.0,SSE,6.9,-,N/A,,Clear,150,2013-10-01 08:14:00
4:35 AM,54.7,50.0,84,29.87,10.0,South,8.1,-,N/A,,Clear,170,2013-10-01 08:35:00
4:54 AM,56.8,50.4,79,29.87,10.0,South,10.4,-,N/A,,Clear,170,2013-10-01 08:54:00
5:15 AM,57.9,50.9,77,29.86,10.0,South,9.2,-,N/A,,Clear,170,2013-10-01 09:15:00
5:34 AM,58.1,51.3,78,29.86,10.0,South,9.2,-,N/A,,Clear,180,2013-10-01 09:34:00
5:54 AM,57.7,51.6,80,29.86,10.0,South,9.2,-,N/A,,Clear,170,2013-10-01 09:54:00
6:15 AM,56.8,51.6,83,29.85,10.0,South,8.1,-,N/A,,Clear,170,2013-10-01 10:15:00
6:34 AM,56.7,51.8,84,29.85,10.0,South,8.1,-,N/A,,Clear,170,2013-10-01 10:34:00
6:55 AM,57.7,52.7,83,29.86,10.0,South,9.2,-,N/A,,Clear,190,2013-10-01 10:55:00
7:15 AM,59.4,53.6,81,29.85,10.0,South,10.4,-,N/A,,Clear,190,2013-10-01 11:15:00
7:34 AM,59.9,54.0,81,29.85,10.0,South,11.5,-,N/A,,Clear,190,2013-10-01 11:34:00
7:55 AM,60.1,54.3,81,29.85,10.0,South,9.2,-,N/A,,Clear,190,2013-10-01 11:55:00
8:14 AM,60.8,54.9,81,29.85,10.0,SSW,8.1,-,N/A,,Clear,200,2013-10-01 12:14:00
8:35 AM,60.8,55.4,82,29.84,10.0,South,10.4,17.3,N/A,,Clear,190,2013-10-01 12:35:00
8:55 AM,62.6,56.3,80,29.84,10.0,SSW,11.5,18.4,N/A,,Clear,200,2013-10-01 12:55:00
9:14 AM,62.8,56.7,80,29.84,10.0,South,10.4,17.3,N/A,,Clear,190,2013-10-01 13:14:00
9:35 AM,63.0,57.2,81,29.83,10.0,South,9.2,-,N/A,,Clear,190,2013-10-01 13:35:00
9:54 AM,63.1,57.6,82,29.83,10.0,SSW,10.4,19.6,N/A,,Clear,200,2013-10-01 13:54:00
10:15 AM,64.9,58.3,79,29.82,10.0,SSW,10.4,19.6,N/A,,Clear,200,2013-10-01 14:15:00
10:35 AM,65.7,59.4,80,29.82,10.0,SSW,11.5,23.0,N/A,,Clear,200,2013-10-01 14:35:00
10:54 AM,67.1,59.9,78,29.82,10.0,SSW,16.1,26.5,N/A,,Clear,200,2013-10-01 14:54:00
11:11 AM,68.0,60.4,77,29.81,10.0,SSW,13.8,23.0,N/A,,Clear,200,2013-10-01 15:11:00
11:38 AM,68.0,60.8,78,29.80,10.0,SSW,13.8,23.0,N/A,,Clear,210,2013-10-01 15:38:00
11:58 AM,69.8,62.6,78,29.80,10.0,South,12.7,19.6,N/A,,Clear,190,2013-10-01 15:58:00
12:17 PM,71.6,62.6,73,29.80,10.0,SSW,16.1,21.9,N/A,,Clear,210,2013-10-01 16:17:00
12:41 PM,71.6,62.6,73,29.79,10.0,SSW,12.7,21.9,N/A,,Clear,200,2013-10-01 16:41:00
12:57 PM,73.4,62.6,69,29.79,10.0,South,15.0,23.0,N/A,,Clear,190,2013-10-01 16:57:00
1:17 PM,73.4,62.6,69,29.78,10.0,SSW,16.1,21.9,N/A,,Clear,210,2013-10-01 17:17:00
1:38 PM,73.4,62.6,69,29.77,10.0,South,16.1,25.3,N/A,,Clear,180,2013-10-01 17:38:00
1:58 PM,75.2,62.6,65,29.77,10.0,SSW,16.1,26.5,N/A,,Clear,210,2013-10-01 17:58:00
2:19 PM,75.2,62.6,65,29.75,10.0,SSW,15.0,25.3,N/A,,Clear,200,2013-10-01 18:19:00
2:40 PM,77.0,60.8,57,29.76,10.0,SSW,15.0,25.3,N/A,,Clear,210,2013-10-01 18:40:00
2:59 PM,77.0,60.8,57,29.76,10.0,SSW,12.7,27.6,N/A,,Clear,210,2013-10-01 18:59:00
3:19 PM,73.4,60.8,65,29.77,10.0,West,17.3,24.2,N/A,,Clear,260,2013-10-01 19:19:00
3:42 PM,71.6,62.6,73,29.78,10.0,WSW,16.1,24.2,N/A,,Clear,240,2013-10-01 19:42:00
3:58 PM,71.6,60.8,69,29.78,10.0,WSW,15.0,24.2,N/A,,Clear,250,2013-10-01 19:58:00
4:18 PM,73.4,60.8,65,29.77,10.0,WSW,20.7,32.2,N/A,,Clear,250,2013-10-01 20:18:00
4:39 PM,73.4,60.8,65,29.77,10.0,WSW,15.0,28.8,N/A,,Clear,240,2013-10-01 20:39:00
4:59 PM,73.4,60.8,65,29.77,10.0,SW,13.8,23.0,N/A,,Clear,220,2013-10-01 20:59:00
5:04 PM,73.4,60.4,64,29.77,10.0,SW,17.3,26.5,N/A,,Clear,230,2013-10-01 21:04:00
5:14 PM,72.9,60.6,65,29.77,10.0,SW,19.6,24.2,N/A,,Clear,230,2013-10-01 21:14:00
5:34 PM,72.0,60.8,68,29.79,10.0,SW,15.0,23.0,N/A,,Clear,230,2013-10-01 21:34:00
5:55 PM,72.0,61.7,70,29.80,10.0,WSW,15.0,20.7,N/A,,Clear,240,2013-10-01 21:55:00
6:14 PM,71.8,61.9,71,29.80,10.0,SW,12.7,19.6,N/A,,Clear,230,2013-10-01 22:14:00
6:34 PM,70.7,61.7,73,29.81,10.0,SW,12.7,21.9,N/A,,Clear,220,2013-10-01 22:34:00
6:55 PM,70.2,61.7,74,29.81,10.0,SSW,16.1,23.0,N/A,,Clear,210,2013-10-01 22:55:00
7:14 PM,69.4,61.7,76,29.81,10.0,SSW,16.1,21.9,N/A,,Clear,210,2013-10-01 23:14:00
7:34 PM,68.9,61.9,78,29.82,10.0,SSW,11.5,20.7,N/A,,Clear,210,2013-10-01 23:34:00
7:55 PM,68.4,61.9,80,29.82,10.0,SSW,10.4,17.3,N/A,,Clear,210,2013-10-01 23:55:00
8:14 PM,68.0,61.9,81,29.82,10.0,SSW,10.4,16.1,N/A,,Clear,210,2013-10-02 00:14:00
8:35 PM,67.6,61.9,82,29.83,10.0,SSW,8.1,-,N/A,,Clear,210,2013-10-02 00:35:00
8:55 PM,67.5,61.9,82,29.83,10.0,SSW,9.2,16.1,N/A,,Clear,210,2013-10-02 00:55:00
9:14 PM,67.3,62.1,83,29.84,10.0,SW,10.4,19.6,N/A,,Clear,220,2013-10-02 01:14:00
9:35 PM,67.3,62.1,83,29.83,10.0,SSW,11.5,20.7,N/A,,Clear,210,2013-10-02 01:35:00
9:54 PM,67.1,62.1,84,29.84,10.0,SW,11.5,17.3,N/A,,Clear,220,2013-10-02 01:54:00
10:14 PM,66.7,61.9,84,29.84,10.0,SW,11.5,-,N/A,,Scattered Clouds,220,2013-10-02 02:14:00
10:35 PM,66.9,61.9,84,29.84,10.0,SW,12.7,16.1,N/A,,Scattered Clouds,220,2013-10-02 02:35:00
10:54 PM,67.1,61.7,83,29.85,10.0,SW,10.4,-,N/A,,Mostly Cloudy,230,2013-10-02 02:54:00
11:14 PM,67.5,60.4,78,29.85,10.0,WSW,12.7,-,N/A,,Mostly Cloudy,240,2013-10-02 03:14:00
11:35 PM,68.0,59.4,74,29.87,10.0,WSW,15.0,20.7,N/A,,Mostly Cloudy,250,2013-10-02 03:35:00
11:54 PM,66.7,58.3,74,29.87,10.0,WSW,16.1,21.9,N/A,,Mostly Cloudy,250,2013-10-02 03:54:00